TimeEST,TemperatureF,Dew PointF,Humidity,Sea Level PressureIn,VisibilityMPH,Wind Direction,Wind SpeedMPH,Gust SpeedMPH,PrecipitationIn,Events,Conditions,WindDirDegrees,DateUTC
12:15 AM,10.4,3.2,73,30.36,10.0,Calm,Calm,-,N/A,,Mostly Cloudy,0,2013-01-19 05:15:00
12:35 AM,14.0,6.8,73,30.34,10.0,Calm,Calm,-,N/A,,Overcast,0,2013-01-19 05:35:00
12:55 AM,14.0,6.8,73,30.34,10.0,Calm,Calm,-,N/A,,Scattered Clouds,0,2013-01-19 05:55:00
1:15 AM,15.8,6.8,68,30.34,10.0,Calm,Calm,-,N/A,,Clear,0,2013-01-19 06:15:00
1:35 AM,15.8,8.6,73,30.34,10.0,Calm,Calm,-,N/A,,Clear,0,2013-01-19 06:35:00
1:55 AM,17.6,6.8,63,30.33,10.0,Calm,Calm,-,N/A,,Clear,0,2013-01-19 06:55:00
2:15 AM,17.6,8.6,68,30.33,10.0,Calm,Calm,-,N/A,,Clear,0,2013-01-19 07:15:00
2:35 AM,17.6,8.6,68,30.31,10.0,Calm,Calm,-,N/A,,Clear,0,2013-01-19 07:35:00
2:55 AM,19.4,10.4,68,30.29,10.0,Calm,Calm,-,N/A,,Partly Cloudy,0,2013-01-19 07:55:00
3:16 AM,19.4,10.4,68,30.28,10.0,WNW,3.5,-,N/A,,Mostly Cloudy,290,2013-01-19 08:16:00
3:35 AM,21.2,12.2,68,30.26,10.0,Calm,Calm,-,N/A,,Scattered Clouds,0,2013-01-19 08:35:00
3:55 AM,21.2,12.2,68,30.24,10.0,Calm,Calm,-,N/A,,Mostly Cloudy,0,2013-01-19 08:55:00
4:15 AM,26.6,17.6,69,30.23,10.0,SW,11.5,19.6,N/A,,Overcast,220,2013-01-19 09:15:00
4:35 AM,28.4,17.6,64,30.21,10.0,SW,11.5,18.4,N/A,,Overcast,220,2013-01-19 09:35:00
4:55 AM,30.2,17.6,60,30.19,10.0,SW,15.0,21.9,N/A,,Mostly Cloudy,220,2013-01-19 09:55:00
5:15 AM,30.2,17.6,60,30.18,10.0,SW,15.0,31.1,N/A,,Mostly Cloudy,220,2013-01-19 10:15:00
5:35 AM,30.2,19.4,64,30.18,10.0,SW,16.1,26.5,N/A,,Mostly Cloudy,230,2013-01-19 10:35:00
5:55 AM,32.0,19.4,60,30.16,10.0,SW,18.4,32.2,N/A,,Overcast,220,2013-01-19 10:55:00
6:15 AM,32.0,21.2,64,30.15,6.0,SW,19.6,32.2,N/A,,Overcast,220,2013-01-19 11:15:00
6:35 AM,30.2,26.6,86,30.14,3.0,WSW,18.4,26.5,N/A,,Overcast,240,2013-01-19 11:35:00
6:55 AM,30.2,26.6,86,30.14,2.0,SW,13.8,23.0,N/A,,Overcast,230,2013-01-19 11:55:00
7:15 AM,30.2,28.4,93,30.14,1.2,WSW,15.0,26.5,N/A,,Overcast,240,2013-01-19 12:15:00
7:35 AM,30.2,28.4,93,30.14,0.8,WSW,11.5,-,N/A,,Overcast,250,2013-01-19 12:35:00
7:55 AM,30.2,26.6,86,30.14,1.0,WSW,12.7,21.9,N/A,,Overcast,250,2013-01-19 12:55:00
8:15 AM,30.2,26.6,86,30.14,1.2,WSW,11.5,16.1,N/A,,Overcast,250,2013-01-19 13:15:00
8:35 AM,30.2,26.6,86,30.12,1.5,WSW,12.7,23.0,N/A,,Overcast,240,2013-01-19 13:35:00
9:15 AM,32.0,26.6,80,30.12,5.0,SW,15.0,24.2,N/A,,Overcast,230,2013-01-19 14:15:00
9:35 AM,32.0,26.6,80,30.11,6.0,WSW,19.6,26.5,N/A,,Overcast,240,2013-01-19 14:35:00
9:55 AM,33.8,26.6,75,30.11,8.0,WSW,13.8,21.9,N/A,,Mostly Cloudy,250,2013-01-19 14:55:00
10:15 AM,33.8,24.8,70,30.10,10.0,WSW,12.7,20.7,N/A,,Partly Cloudy,250,2013-01-19 15:15:00
10:35 AM,35.6,24.8,65,30.08,10.0,WSW,15.0,18.4,N/A,,Scattered Clouds,250,2013-01-19 15:35:00
10:55 AM,35.6,24.8,65,30.07,10.0,WSW,13.8,25.3,N/A,,Mostly Cloudy,240,2013-01-19 15:55:00
11:15 AM,35.6,24.8,65,30.05,10.0,WSW,15.0,23.0,N/A,,Mostly Cloudy,250,2013-01-19 16:15:00
11:35 AM,35.6,24.8,65,30.03,10.0,WSW,15.0,21.9,N/A,,Partly Cloudy,240,2013-01-19 16:35:00
11:55 AM,35.6,24.8,65,30.02,10.0,WSW,12.7,23.0,N/A,,Scattered Clouds,240,2013-01-19 16:55:00
12:15 PM,35.6,24.8,65,30.01,10.0,WSW,13.8,19.6,N/A,,Mostly Cloudy,250,2013-01-19 17:15:00
12:35 PM,37.4,24.8,60,29.99,10.0,WSW,10.4,19.6,N/A,,Mostly Cloudy,250,2013-01-19 17:35:00
12:55 PM,37.4,24.8,60,29.99,10.0,WSW,11.5,-,N/A,,Overcast,250,2013-01-19 17:55:00
1:15 PM,37.4,24.8,60,29.98,10.0,WSW,11.5,-,N/A,,Overcast,250,2013-01-19 18:15:00
1:35 PM,37.4,26.6,65,29.97,10.0,WSW,12.7,16.1,N/A,,Overcast,250,2013-01-19 18:35:00
1:55 PM,37.4,26.6,65,29.96,10.0,West,9.2,-,N/A,,Overcast,260,2013-01-19 18:55:00
2:15 PM,37.4,26.6,65,29.96,10.0,WSW,9.2,-,N/A,,Overcast,250,2013-01-19 19:15:00
2:35 PM,37.4,26.6,65,29.96,10.0,West,8.1,-,N/A,,Overcast,260,2013-01-19 19:35:00
2:55 PM,37.4,26.6,65,29.96,10.0,West,8.1,-,N/A,,Mostly Cloudy,270,2013-01-19 19:55:00
3:15 PM,39.2,26.6,61,29.96,10.0,WSW,6.9,-,N/A,,Partly Cloudy,250,2013-01-19 20:15:00
3:35 PM,39.2,26.6,61,29.96,10.0,West,8.1,-,N/A,,Clear,270,2013-01-19 20:35:00
3:55 PM,37.4,24.8,60,29.96,10.0,WNW,4.6,-,N/A,,Clear,290,2013-01-19 20:55:00
4:15 PM,37.4,24.8,60,29.96,10.0,NW,3.5,-,N/A,,Mostly Cloudy,320,2013-01-19 21:15:00
4:35 PM,35.6,24.8,65,29.95,10.0,Calm,Calm,-,N/A,,Overcast,0,2013-01-19 21:35:00
4:55 PM,33.8,24.8,70,29.95,10.0,Calm,Calm,-,N/A,,Overcast,0,2013-01-19 21:55:00
5:15 PM,33.8,24.8,70,29.96,10.0,Calm,Calm,-,N/A,,Mostly Cloudy,0,2013-01-19 22:15:00
5:35 PM,33.8,26.6,75,29.96,10.0,Calm,Calm,-,N/A,,Mostly Cloudy,0,2013-01-19 22:35:00
5:55 PM,33.8,26.6,75,29.97,10.0,Calm,Calm,-,N/A,,Mostly Cloudy,0,2013-01-19 22:55:00
6:15 PM,32.0,26.6,80,29.97,10.0,Calm,Calm,-,N/A,,Partly Cloudy,0,2013-01-19 23:15:00
6:35 PM,32.0,26.6,80,29.98,10.0,Calm,Calm,-,N/A,,Clear,0,2013-01-19 23:35:00
6:55 PM,30.2,26.6,86,29.98,10.0,Calm,Calm,-,N/A,,Partly Cloudy,0,2013-01-19 23:55:00
7:15 PM,32.0,26.6,80,29.97,10.0,Calm,Calm,-,N/A,,Partly Cloudy,0,2013-01-20 00:15:00
7:35 PM,30.2,26.6,86,29.96,10.0,Calm,Calm,-,N/A,,Partly Cloudy,0,2013-01-20 00:35:00
7:55 PM,30.2,28.4,93,29.96,10.0,Calm,Calm,-,N/A,,Partly Cloudy,0,2013-01-20 00:55:00
8:15 PM,30.2,28.4,93,29.96,10.0,Calm,Calm,-,N/A,,Clear,0,2013-01-20 01:15:00
8:35 PM,30.2,28.4,93,29.96,10.0,Calm,Calm,-,N/A,,Clear,0,2013-01-20 01:35:00
8:55 PM,30.2,28.4,93,29.95,10.0,Calm,Calm,-,N/A,,Clear,0,2013-01-20 01:55:00
9:35 PM,32.0,28.4,87,29.95,10.0,Calm,Calm,-,N/A,,Clear,0,2013-01-20 02:35:00
9:55 PM,32.0,28.4,87,29.94,10.0,Calm,Calm,-,N/A,,Clear,0,2013-01-20 02:55:00
10:15 PM,32.0,28.4,87,29.93,10.0,Calm,Calm,-,N/A,,Clear,0,2013-01-20 03:15:00
10:35 PM,32.0,28.4,87,29.93,10.0,Calm,Calm,-,N/A,,Clear,0,2013-01-20 03:35:00
10:55 PM,30.2,28.4,93,29.92,10.0,Calm,Calm,-,N/A,,Scattered Clouds,0,2013-01-20 03:55:00
11:15 PM,30.2,28.4,93,29.90,10.0,Calm,Calm,-,N/A,,Scattered Clouds,0,2013-01-20 04:15:00
11:35 PM,32.0,28.4,87,29.89,10.0,NNE,3.5,-,N/A,,Clear,30,2013-01-20 04:35:00
11:55 PM,30.2,28.4,93,29.88,10.0,Calm,Calm,-,N/A,,Clear,0,2013-01-20 04:55:00